Southport, FL

9:26 PM CST on February 05, 2016 (GMT -0600)
Northwest Florida Beaches International

Weather History for KECP - November, 2012

Change the Weather History Date:

Friday, November 30, 2012

  Actual Average Record
Temperature  
Mean Temperature 60 °F -  
Max Temperature 74 °F - 79 °F (2015)
Min Temperature 46 °F - 33 °F (2011)
Degree Days  
Heating Degree Days 5    
Cooling Degree Days 0    
Growing Degree Days 10 (Base 50)    
Moisture  
Dew Point 52 °F    
Average Humidity 71    
Maximum Humidity 96    
Minimum Humidity 46    
Precipitation  
Precipitation 0.00 in - 0.22 in (2010)
Month to date precipitation  
Year to date precipitation  
Sea Level Pressure  
Sea Level Pressure 30.29 in    
Wind  
Wind Speed 3 mph (ENE)    
Max Wind Speed 10 mph    
Max Gust Speed 15 mph    
Visibility 9 miles    
Events      
T = Trace of Precipitation, MM = Missing Value Source: NWS Daily Summary

Daily Weather History Graph

Daily Weather History Graph

Search for Another Location

Airport or City:

Trip Planner

Search our weather history database for the weather conditions in past years. The results will help you decide how hot, cold, wet, or windy it might be!

Date:

Astronomy

Nov. 30, 2012 Rise Set
Actual Time 7:21 AM EST 5:42 PM EST
Civil Twilight 6:55 AM EST 6:08 PM EST
Nautical Twilight 6:26 AM EST 6:37 PM EST
Astronomical Twilight 5:57 AM EST 7:06 PM EST
Moon 7:35 PM EST (11/30) 8:53 AM EST (11/30)
Length of Visible Light 11h 12m
Length of Day
10h 20m
Waning Gibbous, 96% of the Moon is Illuminated
Nov 30
Waning Gibbous
Dec 6
Last Quarter
Dec 13
New
Dec 20
First Quarter
Dec 28
Full

Hourly Weather History & Observations

Time (EST) Temp. Dew Point Humidity Pressure Visibility Wind Dir Wind Speed Gust Speed Precip Events Conditions
12:53 AM 53.1 °F 48.0 °F 83% 30.30 in 10.0 mi NNE 3.5 mph - N/A   Clear
1:53 AM 52.0 °F 48.0 °F 86% 30.30 in 10.0 mi Calm Calm - N/A   Clear
2:53 AM 48.9 °F 46.9 °F 93% 30.31 in 8.0 mi Calm Calm - N/A   Mostly Cloudy
3:53 AM 50.0 °F 48.0 °F 93% 30.32 in 7.0 mi Calm Calm - N/A   Mostly Cloudy
4:53 AM 48.9 °F 46.9 °F 93% 30.31 in 5.0 mi Calm Calm - N/A   Scattered Clouds
5:53 AM 46.0 °F 44.1 °F 93% 30.31 in 6.0 mi Calm Calm - N/A   Partly Cloudy
6:53 AM 48.9 °F 46.9 °F 93% 30.32 in 5.0 mi NNE 4.6 mph - N/A   Scattered Clouds
7:53 AM 52.0 °F 50.0 °F 93% 30.32 in 6.0 mi NE 6.9 mph - N/A   Mostly Cloudy
8:53 AM 54.0 °F 51.1 °F 90% 30.33 in 7.0 mi NE 5.8 mph - N/A   Partly Cloudy
9:53 AM 59.0 °F 53.1 °F 81% 30.34 in 10.0 mi East 6.9 mph - N/A   Clear
10:53 AM 66.0 °F 53.1 °F 63% 30.33 in 10.0 mi East 6.9 mph - N/A   Clear
11:53 AM 69.8 °F 55.4 °F 60% 30.28 in 10.0 mi East 8.1 mph - N/A   Clear
12:53 PM 72.0 °F 53.1 °F 51% 30.29 in 10.0 mi East 8.1 mph - N/A   Clear
1:53 PM 73.0 °F 51.1 °F 46% 30.27 in 10.0 mi East 6.9 mph - N/A   Mostly Cloudy
2:53 PM 72.0 °F 53.1 °F 51% 30.25 in 10.0 mi SSE 8.1 mph - N/A   Mostly Cloudy
3:53 PM 72.0 °F 54.0 °F 53% 30.24 in 9.0 mi SE 6.9 mph - N/A   Partly Cloudy
4:53 PM 69.1 °F 55.9 °F 63% 30.25 in 10.0 mi SSE 5.8 mph - N/A   Partly Cloudy
5:53 PM 63.0 °F 55.9 °F 78% 30.26 in 10.0 mi Calm Calm - N/A   Scattered Clouds
6:53 PM 57.9 °F 55.0 °F 90% 30.26 in 10.0 mi Calm Calm - N/A   Clear
7:53 PM 60.1 °F 55.9 °F 86% 30.27 in 10.0 mi Calm Calm - N/A   Overcast
8:53 PM 57.9 °F 55.0 °F 90% 30.28 in 8.0 mi NNE 3.5 mph - N/A   Scattered Clouds
10:53 PM 57.0 °F 53.1 °F 87% 30.27 in 10.0 mi NE 5.8 mph - N/A   Clear
11:53 PM 53.1 °F 51.1 °F 93% 30.27 in 10.0 mi Calm Calm - N/A   Clear